Le nostre stazioni meteo in Italia

Pubblicità
Il mio iltempo24.it
Dalwhinnie, Gran Bretagna (99005): Temperatura & dewpoint: 13.08.2018 09:00:00 - 19.08.2018 09:00:00 (BST)Dalwhinnie, Gran Bretagna (99005): precipitazioni: 13.08.2018 09:00:00 - 19.08.2018 09:00:00 (BST)
Data & Tempo tt [°C] td [°C] rr [mm]
19.08.2018 09:00:00 10,2 9,3 -
19.08.2018 08:00:00 9,6 8,7 0,8
19.08.2018 07:00:00 9,3 8,9 1,0
19.08.2018 06:00:00 9,6 9,2 0,4
19.08.2018 05:00:00 10,3 9,9 0,2
19.08.2018 04:00:00 10,7 10,1 0,0
19.08.2018 03:00:00 10,8 10,0 0,0
19.08.2018 02:00:00 11,0 9,9 0,0
19.08.2018 01:00:00 11,0 9,9 0,0
19.08.2018 00:00:00 11,7 9,8 0,0
18.08.2018 23:00:00 11,7 9,8 0,0
18.08.2018 22:00:00 11,7 9,8 0,0
18.08.2018 21:00:00 12,5 9,3 0,0
18.08.2018 20:00:00 13,0 8,9 0,0
18.08.2018 19:00:00 13,2 8,6 0,0
18.08.2018 18:00:00 13,6 8,7 0,0
18.08.2018 17:00:00 14,5 9,6 0,0
18.08.2018 16:00:00 14,2 8,9 0,0
18.08.2018 15:00:00 14,6 8,2 0,0
18.08.2018 14:00:00 14,1 8,1 0,0
18.08.2018 13:00:00 13,8 8,6 0,0
18.08.2018 12:00:00 13,5 7,3 0,0
18.08.2018 11:00:00 13,5 7,5 0,0
18.08.2018 10:00:00 13,6 7,7 0,0
18.08.2018 09:00:00 13,8 8,1 0,0
18.08.2018 08:00:00 12,5 7,5 0,0
18.08.2018 07:00:00 12,5 8,3 0,0
18.08.2018 06:00:00 12,5 8,4 0,0
18.08.2018 05:00:00 12,3 8,4 0,0
18.08.2018 04:00:00 12,5 8,0 0,0
18.08.2018 03:00:00 12,3 7,9 0,0
18.08.2018 02:00:00 11,9 7,8 0,0
18.08.2018 01:00:00 11,8 7,7 0,0
18.08.2018 00:00:00 11,9 7,6 0,0
17.08.2018 23:00:00 12,2 7,6 0,0
17.08.2018 22:00:00 12,1 8,8 0,0
17.08.2018 21:00:00 12,8 8,9 0,0
17.08.2018 20:00:00 14,1 10,4 0,0
17.08.2018 19:00:00 14,0 12,3 0,0
17.08.2018 18:00:00 13,3 12,4 0,0
17.08.2018 17:00:00 13,3 11,8 0,0
17.08.2018 16:00:00 13,4 11,1 0,0
17.08.2018 15:00:00 12,2 10,6 0,0
17.08.2018 14:00:00 12,1 10,3 0,0
17.08.2018 13:00:00 11,9 10,1 0,0
17.08.2018 12:00:00 11,8 10,0 0,0
17.08.2018 11:00:00 11,3 9,5 0,2
17.08.2018 10:00:00 10,4 8,9 0,0
17.08.2018 09:00:00 10,1 8,5 0,0
17.08.2018 08:00:00 9,7 7,6 0,0
17.08.2018 07:00:00 9,4 7,8 0,0
17.08.2018 06:00:00 9,3 7,7 0,0
17.08.2018 05:00:00 9,7 7,9 0,2
17.08.2018 04:00:00 9,6 8,2 0,8
17.08.2018 03:00:00 9,9 8,4 0,0
17.08.2018 02:00:00 9,8 7,3 0,0
17.08.2018 01:00:00 10,2 7,8 0,0
17.08.2018 00:00:00 10,2 8,2 0,4
16.08.2018 23:00:00 9,8 8,0 0,2
16.08.2018 22:00:00 10,2 8,0 0,0
16.08.2018 21:00:00 10,3 7,6 0,0
16.08.2018 20:00:00 11,9 7,4 0,0
16.08.2018 19:00:00 12,6 7,4 0,0
16.08.2018 18:00:00 12,9 7,4 0,0
16.08.2018 17:00:00 13,5 7,9 0,0
16.08.2018 16:00:00 11,8 9,1 1,0
16.08.2018 15:00:00 12,4 9,0 0,2
16.08.2018 14:00:00 13,9 8,7 0,0
16.08.2018 13:00:00 12,0 9,5 0,4
16.08.2018 12:00:00 12,2 8,5 0,0
16.08.2018 11:00:00 11,2 8,8 0,2
16.08.2018 10:00:00 11,0 9,3 1,4
16.08.2018 09:00:00 10,3 9,0 0,2
16.08.2018 08:00:00 10,2 8,6 0,2
16.08.2018 07:00:00 9,8 8,4 0,0
16.08.2018 06:00:00 9,8 8,1 0,0
16.08.2018 05:00:00 9,6 7,2 0,0
16.08.2018 04:00:00 9,4 8,0 0,2
16.08.2018 03:00:00 10,1 6,9 0,0
16.08.2018 02:00:00 10,2 8,3 0,0
16.08.2018 01:00:00 10,6 9,1 0,2
16.08.2018 00:00:00 11,4 10,5 0,0
15.08.2018 23:00:00 11,3 10,4 0,2
15.08.2018 22:00:00 12,2 10,0 0,0
15.08.2018 21:00:00 12,1 9,5 0,0
15.08.2018 20:00:00 12,9 8,8 0,0
15.08.2018 19:00:00 13,1 9,3 0,0
15.08.2018 18:00:00 13,1 9,1 0,0
15.08.2018 17:00:00 12,6 10,3 0,2
15.08.2018 16:00:00 12,8 10,6 0,4
15.08.2018 15:00:00 14,7 9,9 0,0
15.08.2018 14:00:00 13,9 10,5 0,0
15.08.2018 13:00:00 14,8 9,9 0,0
15.08.2018 12:00:00 15,0 9,2 0,0
15.08.2018 11:00:00 14,9 10,3 0,0
15.08.2018 10:00:00 14,7 10,1 0,0
15.08.2018 09:00:00 14,4 12,2 0,0
15.08.2018 08:00:00 14,2 13,1 0,2
15.08.2018 07:00:00 14,0 13,4 0,4
15.08.2018 06:00:00 13,6 13,0 0,0
15.08.2018 05:00:00 13,1 12,4 0,0
15.08.2018 04:00:00 13,2 12,3 0,0
15.08.2018 03:00:00 12,9 11,5 0,0
15.08.2018 02:00:00 12,6 11,2 0,0
15.08.2018 01:00:00 12,7 10,8 0,0
15.08.2018 00:00:00 13,1 10,3 0,0
14.08.2018 23:00:00 13,3 10,6 0,0
14.08.2018 22:00:00 13,8 10,4 0,0
14.08.2018 21:00:00 14,4 10,4 0,0
14.08.2018 20:00:00 15,2 10,7 0,0
14.08.2018 19:00:00 16,1 11,0 0,0
14.08.2018 18:00:00 17,1 12,2 0,0
14.08.2018 17:00:00 17,5 13,0 0,0
14.08.2018 16:00:00 16,7 14,3 0,0
14.08.2018 15:00:00 16,1 14,0 0,0
14.08.2018 14:00:00 15,1 13,3 0,0
14.08.2018 13:00:00 15,1 13,6 1,2
14.08.2018 12:00:00 13,5 12,2 0,4
14.08.2018 11:00:00 14,0 11,4 0,0
14.08.2018 10:00:00 14,0 11,2 0,0
14.08.2018 09:00:00 13,4 11,3 0,0
14.08.2018 08:00:00 12,9 11,0 0,0
14.08.2018 07:00:00 12,3 10,6 0,0
14.08.2018 06:00:00 12,0 10,8 0,0
14.08.2018 05:00:00 11,9 10,8 0,0
14.08.2018 04:00:00 11,7 10,3 0,0
14.08.2018 03:00:00 11,8 10,3 0,0
14.08.2018 02:00:00 11,8 10,5 0,0
14.08.2018 01:00:00 12,5 10,6 0,0
14.08.2018 00:00:00 12,8 11,1 0,0
13.08.2018 23:00:00 13,1 11,9 0,0
13.08.2018 22:00:00 13,5 12,8 0,2
13.08.2018 21:00:00 13,8 13,2 0,2
13.08.2018 20:00:00 14,5 13,5 0,0
13.08.2018 19:00:00 15,3 13,2 0,0
13.08.2018 18:00:00 16,3 13,2 0,0
13.08.2018 17:00:00 16,3 13,5 0,0
13.08.2018 16:00:00 16,7 12,8 0,0
13.08.2018 15:00:00 16,5 12,2 0,0
13.08.2018 14:00:00 15,8 12,8 0,0
13.08.2018 13:00:00 15,4 12,4 0,0
13.08.2018 12:00:00 15,0 12,5 0,0
13.08.2018 11:00:00 13,5 11,9 0,2
13.08.2018 10:00:00 12,8 11,9 0,0
13.08.2018 09:00:00 12,4 11,9 0,0

tt = Temperatura
td = dewpoint
rr = precipitazioni

Stazioni seguenti

WeatherPro
AMSI
MeteoEarth